TimeCST,TemperatureF,Dew PointF,Humidity,Sea Level PressureIn,VisibilityMPH,Wind Direction,Wind SpeedMPH,Gust SpeedMPH,PrecipitationIn,Events,Conditions,WindDirDegrees,DateUTC
12:12 AM,26.6,24.8,93,29.55,-9999.0,NNW,28.8,38.0,N/A,,Unknown,330,2013-02-11 06:12:00
12:32 AM,26.6,24.8,93,29.57,-9999.0,NNW,31.1,36.8,N/A,,Unknown,330,2013-02-11 06:32:00
12:53 AM,26.6,24.8,93,29.59,-9999.0,NNW,31.1,42.6,N/A,,Unknown,330,2013-02-11 06:53:00
1:13 AM,26.6,24.8,93,29.60,-9999.0,NNW,29.9,41.4,N/A,,Unknown,340,2013-02-11 07:13:00
1:33 AM,26.6,24.8,93,29.61,-9999.0,NNW,28.8,36.8,N/A,,Unknown,330,2013-02-11 07:33:00
1:53 AM,26.6,23.0,86,29.63,-9999.0,NNW,29.9,38.0,N/A,,Unknown,330,2013-02-11 07:53:00
2:13 AM,26.6,23.0,86,29.64,-9999.0,NNW,33.4,41.4,N/A,,Unknown,330,2013-02-11 08:13:00
2:33 AM,26.6,23.0,86,29.66,-9999.0,NNW,26.5,34.5,N/A,,Unknown,330,2013-02-11 08:33:00
2:53 AM,24.8,21.2,86,29.67,-9999.0,NW,31.1,35.7,N/A,,Unknown,320,2013-02-11 08:53:00
3:13 AM,24.8,21.2,86,29.68,-9999.0,NW,29.9,39.1,N/A,,Unknown,320,2013-02-11 09:13:00
3:33 AM,24.8,21.2,86,29.69,-9999.0,NW,29.9,36.8,N/A,,Overcast,320,2013-02-11 09:33:00
3:53 AM,24.8,21.2,86,29.70,-9999.0,NW,27.6,35.7,N/A,,Unknown,320,2013-02-11 09:53:00
4:13 AM,24.8,21.2,86,29.72,-9999.0,NW,31.1,35.7,N/A,,Unknown,320,2013-02-11 10:13:00
4:33 AM,-9999,-9999,N/A,29.73,-9999.0,NW,27.6,33.4,N/A,,Unknown,320,2013-02-11 10:33:00
4:53 AM,-9999,-9999,N/A,29.74,-9999.0,NW,28.8,34.5,N/A,,Unknown,320,2013-02-11 10:53:00
5:13 AM,23.0,19.4,86,29.76,-9999.0,NW,27.6,33.4,N/A,,Overcast,320,2013-02-11 11:13:00
5:33 AM,23.0,19.4,86,29.77,-9999.0,NW,26.5,-,N/A,,Unknown,320,2013-02-11 11:33:00
5:53 AM,21.2,19.4,93,29.78,-9999.0,NW,27.6,33.4,N/A,,Unknown,310,2013-02-11 11:53:00
6:14 AM,21.2,19.4,93,29.79,-9999.0,NW,23.0,32.2,N/A,,Unknown,310,2013-02-11 12:14:00
6:33 AM,21.2,19.4,93,29.80,-9999.0,NW,24.2,33.4,N/A,,Unknown,320,2013-02-11 12:33:00
6:53 AM,21.2,19.4,93,29.81,-9999.0,NW,25.3,29.9,N/A,,Unknown,320,2013-02-11 12:53:00
7:13 AM,21.2,19.4,93,29.83,-9999.0,NW,27.6,33.4,N/A,,Unknown,320,2013-02-11 13:13:00
7:33 AM,23.0,19.4,86,29.84,-9999.0,NW,23.0,29.9,N/A,,Overcast,320,2013-02-11 13:33:00
7:53 AM,21.2,19.4,93,29.85,-9999.0,NW,27.6,33.4,N/A,,Overcast,310,2013-02-11 13:53:00
8:14 AM,21.2,19.4,93,29.86,-9999.0,NW,27.6,32.2,N/A,,Overcast,320,2013-02-11 14:14:00
8:33 AM,21.2,19.4,93,29.88,1.0,NW,29.9,35.7,N/A,Snow,Light Snow,320,2013-02-11 14:33:00
8:53 AM,21.2,19.4,93,29.88,1.8,NW,28.8,34.5,N/A,,Overcast,320,2013-02-11 14:53:00
9:13 AM,21.2,19.4,93,29.89,4.0,NW,27.6,33.4,N/A,,Overcast,320,2013-02-11 15:13:00
9:33 AM,21.2,19.4,93,29.90,4.0,NW,25.3,29.9,N/A,,Overcast,320,2013-02-11 15:33:00
9:53 AM,23.0,19.4,86,29.91,3.0,NW,24.2,27.6,N/A,,Overcast,320,2013-02-11 15:53:00
10:13 AM,23.0,19.4,86,29.91,2.5,NW,27.6,32.2,N/A,,Overcast,320,2013-02-11 16:13:00
10:34 AM,23.0,19.4,86,29.93,2.0,WNW,21.9,28.8,N/A,Snow,Light Snow,300,2013-02-11 16:34:00
10:53 AM,23.0,19.4,86,29.94,2.5,WNW,21.9,28.8,N/A,Snow,Light Snow,300,2013-02-11 16:53:00
11:13 AM,24.8,19.4,80,29.95,3.0,NW,23.0,29.9,N/A,Snow,Light Snow,310,2013-02-11 17:13:00
11:33 AM,23.0,17.6,80,29.97,3.0,NW,20.7,27.6,N/A,Snow,Light Snow,310,2013-02-11 17:33:00
11:53 AM,23.0,17.6,80,29.98,3.0,NW,23.0,27.6,N/A,Snow,Light Snow,310,2013-02-11 17:53:00
12:13 PM,23.0,17.6,80,29.98,3.0,NW,21.9,26.5,N/A,Snow,Light Snow,320,2013-02-11 18:13:00
12:34 PM,23.0,17.6,80,29.97,1.5,NW,24.2,32.2,N/A,Snow,Light Snow,310,2013-02-11 18:34:00
12:53 PM,23.0,17.6,80,29.98,3.0,NW,19.6,33.4,N/A,Snow,Light Snow,310,2013-02-11 18:53:00
1:13 PM,23.0,17.6,80,29.98,3.0,WNW,18.4,27.6,N/A,Snow,Light Snow,300,2013-02-11 19:13:00
1:34 PM,23.0,17.6,80,29.98,4.0,WNW,19.6,25.3,N/A,Snow,Light Snow,300,2013-02-11 19:34:00
1:54 PM,23.0,17.6,80,29.98,1.2,NW,18.4,23.0,N/A,Snow,Light Snow,320,2013-02-11 19:54:00
2:13 PM,23.0,15.8,74,29.99,7.0,NW,18.4,23.0,N/A,,Overcast,310,2013-02-11 20:13:00
2:34 PM,23.0,15.8,74,29.99,7.0,NW,18.4,25.3,N/A,,Overcast,310,2013-02-11 20:34:00
2:53 PM,23.0,15.8,74,29.99,10.0,NW,17.3,-,N/A,Snow,Light Snow,310,2013-02-11 20:53:00
3:13 PM,23.0,17.6,80,29.99,7.0,NW,18.4,-,N/A,Snow,Light Snow,310,2013-02-11 21:13:00
3:33 PM,23.0,17.6,80,30.00,10.0,WNW,17.3,23.0,N/A,,Overcast,300,2013-02-11 21:33:00
3:53 PM,23.0,17.6,80,30.01,10.0,WNW,16.1,20.7,N/A,Snow,Light Snow,300,2013-02-11 21:53:00
4:53 PM,23.0,17.6,80,30.02,10.0,NW,17.3,-,N/A,,Overcast,320,2013-02-11 22:53:00
5:14 PM,23.0,17.6,80,30.02,10.0,WNW,13.8,-,N/A,,Overcast,300,2013-02-11 23:14:00
5:34 PM,23.0,17.6,80,30.02,10.0,WNW,11.5,-,N/A,,Overcast,290,2013-02-11 23:34:00
5:53 PM,23.0,15.8,74,30.02,10.0,WNW,10.4,-,N/A,,Overcast,290,2013-02-11 23:53:00
6:14 PM,21.2,15.8,80,30.02,10.0,WNW,10.4,-,N/A,,Mostly Cloudy,300,2013-02-12 00:14:00
6:33 PM,19.4,12.2,74,30.02,10.0,WNW,8.1,-,N/A,,Scattered Clouds,300,2013-02-12 00:33:00
6:53 PM,15.8,10.4,79,30.02,10.0,West,9.2,-,N/A,,Scattered Clouds,280,2013-02-12 00:53:00
7:13 PM,19.4,15.8,86,30.03,10.0,West,8.1,-,N/A,,Mostly Cloudy,280,2013-02-12 01:13:00
7:34 PM,19.4,15.8,86,30.03,10.0,West,9.2,-,N/A,,Overcast,280,2013-02-12 01:34:00
7:53 PM,19.4,15.8,86,30.03,10.0,West,8.1,-,N/A,,Overcast,270,2013-02-12 01:53:00
8:13 PM,19.4,15.8,86,30.03,10.0,West,8.1,-,N/A,,Overcast,270,2013-02-12 02:13:00
8:34 PM,19.4,15.8,86,30.04,10.0,West,8.1,-,N/A,,Overcast,270,2013-02-12 02:34:00
8:53 PM,19.4,15.8,86,30.04,10.0,West,9.2,-,N/A,,Overcast,270,2013-02-12 02:53:00
9:13 PM,19.4,15.8,86,30.04,10.0,West,10.4,-,N/A,,Overcast,270,2013-02-12 03:13:00
9:33 PM,19.4,14.0,80,30.04,10.0,WNW,6.9,-,N/A,,Overcast,290,2013-02-12 03:33:00
9:53 PM,19.4,14.0,80,30.04,10.0,WNW,4.6,-,N/A,,Overcast,290,2013-02-12 03:53:00
10:13 PM,19.4,15.8,86,30.03,10.0,West,3.5,-,N/A,,Overcast,270,2013-02-12 04:13:00
10:33 PM,19.4,15.8,86,30.03,10.0,WSW,5.8,-,N/A,,Overcast,250,2013-02-12 04:33:00
10:54 PM,19.4,15.8,86,30.03,10.0,Calm,Calm,-,N/A,,Overcast,0,2013-02-12 04:54:00
11:13 PM,19.4,15.8,86,30.02,10.0,Calm,Calm,-,N/A,,Overcast,0,2013-02-12 05:13:00
11:33 PM,19.4,15.8,86,30.02,10.0,Calm,Calm,-,N/A,,Overcast,0,2013-02-12 05:33:00
11:53 PM,19.4,15.8,86,30.01,10.0,South,3.5,-,N/A,,Overcast,190,2013-02-12 05:53:00